Weather History for Sioux City, IA

Change the Weather History Date:

Saturday, January 4, 2014

  Actual Average Record
Temperature  
Mean Temperature 24 °F 20 °F  
Max Temperature 42 °F 30 °F 58 °F (2012)
Min Temperature 5 °F 10 °F -24 °F (1942)
Degree Days  
Heating Degree Days 41 45  
Month to date heating degree days 218 180  
Since 1 July heating degree days 3092 2972  
Cooling Degree Days 0 0  
Month to date cooling degree days 0 0  
Year to date cooling degree days 0 0  
Moisture  
Dew Point 10 °F    
Average Humidity 71    
Maximum Humidity 85    
Minimum Humidity 56    
Precipitation  
Precipitation T in 0.02 in 0.42 in (1922)
Month to date precipitation 0.17 0.08  
Year to date precipitation 0.17 0.08  
Snow  
Snow T in 0.20 in 5.50 in (1910)
Month to date snowfall 1.2 0.8  
Since 1 July snowfall 4.4 14.0  
Snow Depth 0.00 in    
Sea Level Pressure  
Sea Level Pressure 30.04 in    
Wind  
Wind Speed 18 mph (NNW)    
Max Wind Speed 44 mph    
Max Gust Speed 50 mph    
Visibility 10 miles    
Events Snow    
T = Trace of Precipitation, MM = Missing Value Source: NWS Daily Summary

Daily Weather History Graph

Daily Weather History Graph

Search for Another Location

Airport:

Trip Planner

Search our weather history database for the weather conditions in past years. The results will help you decide how hot, cold, wet, or windy it might be!

Date:

Astronomy

Jan. 04, 2014 Rise Set
Actual Time 7:54 AM CST 5:06 PM CST
Civil Twilight 7:23 AM CST 5:38 PM CST
Nautical Twilight 6:48 AM CST 6:13 PM CST
Astronomical Twilight 6:13 AM CST 6:47 PM CST
Moon 9:56 AM CST (1/4) 9:33 PM CST (1/4)
Length of Visible Light 10h 14m
Length of Day
9h 11m
Waxing Crescent, 15% of the Moon is Illuminated
Jan 4
Waxing Crescent
Jan 7
First Quarter
Jan 15
Full
Jan 23
Last Quarter
Jan 30
New

Hourly Weather History & Observations

Time (CST) Temp. Windchill Dew Point Humidity Pressure Visibility Wind Dir Wind Speed Gust Speed Precip Events Conditions
12:52 AM 36.0 °F - 30.9 °F 82% 29.60 in 10.0 mi Calm Calm - 0.00 in   Overcast
1:52 AM 37.0 °F 32.4 °F 33.1 °F 86% 29.62 in 10.0 mi West 5.8 mph - N/A   Overcast
2:52 AM 39.0 °F 32.3 °F 33.1 °F 79% 29.66 in 10.0 mi WNW 10.4 mph - N/A   Overcast
3:52 AM 39.9 °F 29.2 °F 30.0 °F 68% 29.68 in 10.0 mi NW 25.3 mph 33.4 mph N/A   Mostly Cloudy
4:27 AM 33.1 °F 18.2 °F 28.0 °F 82% 29.72 in 9.0 mi NNW 34.5 mph 46.0 mph 0.00 in Snow Light Snow
4:52 AM 27.0 °F 10.5 °F 21.0 °F 78% 29.78 in 9.0 mi NNW 31.1 mph 47.2 mph 0.00 in Snow Light Snow
5:52 AM 19.9 °F -0.3 °F 12.0 °F 71% 29.84 in 9.0 mi NNW 36.8 mph 44.9 mph 0.00 in Snow Light Snow
6:07 AM 19.0 °F -0.3 °F 10.9 °F 71% 29.83 in 9.0 mi NNW 31.1 mph 41.4 mph 0.00 in Snow Light Snow
6:52 AM 17.1 °F -2.4 °F 10.0 °F 74% 29.91 in 9.0 mi NNW 28.8 mph 38.0 mph 0.00 in   Partly Cloudy
7:52 AM 15.1 °F -2.5 °F 8.1 °F 74% 29.96 in 10.0 mi NNW 20.7 mph 33.4 mph 0.00 in   Partly Cloudy
8:24 AM 15.1 °F -1.6 °F 8.1 °F 74% 29.96 in 10.0 mi NNW 18.4 mph - N/A   Mostly Cloudy
8:52 AM 15.1 °F -0.6 °F 8.1 °F 74% 30.03 in 10.0 mi North 16.1 mph - N/A   Overcast
9:38 AM 15.1 °F -4.0 °F 6.1 °F 68% 29.99 in 10.0 mi North 25.3 mph 28.8 mph N/A   Scattered Clouds
9:52 AM 14.0 °F -2.5 °F 6.1 °F 71% 30.05 in 10.0 mi North 17.3 mph 27.6 mph N/A   Scattered Clouds
10:01 AM 14.0 °F -3.0 °F 6.1 °F 71% 30.01 in 10.0 mi NNW 18.4 mph 24.2 mph N/A   Mostly Cloudy
10:31 AM 15.1 °F -2.9 °F 6.1 °F 68% 30.05 in 10.0 mi NNW 21.9 mph - N/A   Scattered Clouds
10:52 AM 15.1 °F -0.6 °F 6.1 °F 68% 30.10 in 10.0 mi North 16.1 mph - N/A   Clear
11:52 AM 16.0 °F -0.4 °F 6.1 °F 65% 30.12 in 10.0 mi North 18.4 mph - N/A   Clear
12:52 PM 17.1 °F 2.0 °F 6.1 °F 62% 30.11 in 10.0 mi North 16.1 mph 25.3 mph N/A   Clear
1:52 PM 19.0 °F 2.4 °F 7.0 °F 59% 30.09 in 10.0 mi North 21.9 mph - N/A   Clear
2:52 PM 18.0 °F 2.2 °F 9.0 °F 68% 30.13 in 10.0 mi NNW 18.4 mph - N/A   Clear
3:21 PM 18.0 °F 2.2 °F 9.0 °F 68% 30.10 in 10.0 mi NNW 18.4 mph - N/A   Mostly Cloudy
3:34 PM 18.0 °F 0.9 °F 8.1 °F 65% 30.10 in 10.0 mi NNW 21.9 mph - N/A   Scattered Clouds
3:52 PM 18.0 °F 1.7 °F 9.0 °F 68% 30.14 in 10.0 mi NNW 19.6 mph - N/A   Scattered Clouds
4:52 PM 15.1 °F -0.1 °F 6.1 °F 68% 30.19 in 10.0 mi NNW 15.0 mph - N/A   Clear
5:52 PM 12.9 °F -4.9 °F 5.0 °F 71% 30.22 in 10.0 mi NNW 19.6 mph - N/A   Clear
6:52 PM 12.0 °F -5.6 °F 5.0 °F 73% 30.25 in 10.0 mi NNW 18.4 mph - N/A   Clear
7:52 PM 9.0 °F -10.0 °F 3.0 °F 77% 30.29 in 10.0 mi NNW 19.6 mph - N/A   Clear
8:52 PM 7.0 °F -11.6 °F -0.0 °F 73% 30.32 in 10.0 mi NNW 17.3 mph - N/A   Clear
9:52 PM 5.0 °F -13.0 °F -0.9 °F 76% 30.33 in 10.0 mi NNW 15.0 mph - N/A   Clear
10:52 PM 5.0 °F -13.6 °F -2.9 °F 70% 30.34 in 10.0 mi North 16.1 mph - N/A   Clear
11:52 PM 5.0 °F -14.2 °F -2.9 °F 70% 30.36 in 10.0 mi NNW 17.3 mph - N/A   Clear